UAL520 KJFK-LOWW

Flight info

Callsign UAL520
Flight time N/A
Altitude 33000
Route MERIT DCT HFD DCT PUT DCT WITCH DCT ALLEX N503B ALLRY/M084F350 DCT 51N050W 5230N04000W 5330N03000W 5330N02000W DCT NEBIN/N0486F350 DCT OLGON/N0483F370 DCT ENJEX DCT ADHAV DCT AGCAT DCT AXNEF DCT ZIPWE DCT OZZIL DCT SAWPE Q63 CPT UL9 BIG L607 KONAN DCT KOK DCT REMBA DCT MATUG DCT GUBAX DCT BARSU DCT EKSOS DCT LULAR DCT RUDAP DCT BUDEX BUDEX2W
Aircraft B77W/H-SDE1E2E3FGHIJ2J3J4J5M1RWXY/LB1D1

Departure

Time N/A
Airport John F. Kennedy International Airport (KJFK)

Arrival

Time 2026-04-22 19:56
Airport Vienna International Airport (LOWW)
Time Latitude Longitude Altitude Speed Heading
2026-04-22 19:13 49.65426 11.40758 37318 ft 476 kts 108°
2026-04-22 19:13 49.64342 11.45602 37322 ft 474 kts 105°
2026-04-22 19:14 49.62352 11.55289 37315 ft 474 kts 104°
2026-04-22 19:14 49.60366 11.64996 37302 ft 474 kts 104°
2026-04-22 19:15 49.58695 11.73044 37298 ft 474 kts 104°
2026-04-22 19:15 49.56337 11.84279 37291 ft 474 kts 105°
2026-04-22 19:16 49.54294 11.93944 37295 ft 473 kts 105°
2026-04-22 19:16 49.52261 12.03525 37297 ft 474 kts 105°
2026-04-22 19:17 49.50206 12.13167 37298 ft 474 kts 105°
2026-04-22 19:17 49.48146 12.22785 37297 ft 473 kts 105°
2026-04-22 19:18 49.46428 12.30775 37305 ft 473 kts 105°
2026-04-22 19:18 49.44359 12.40352 37190 ft 469 kts 105°
2026-04-22 19:18 49.43325 12.45118 36885 ft 468 kts 105°
2026-04-22 19:19 49.42295 12.49863 36581 ft 468 kts 105°
2026-04-22 19:19 49.41262 12.54609 36261 ft 467 kts 105°
2026-04-22 19:19 49.40229 12.59344 35971 ft 466 kts 105°
2026-04-22 19:19 49.39201 12.64046 35687 ft 465 kts 105°
2026-04-22 19:20 49.38187 12.68676 35419 ft 462 kts 105°
2026-04-22 19:20 49.36132 12.77976 35316 ft 460 kts 106°
2026-04-22 19:21 49.33881 12.87229 35316 ft 464 kts 108°
2026-04-22 19:21 49.31560 12.96508 35307 ft 466 kts 108°
2026-04-22 19:22 49.29270 13.05745 35307 ft 466 kts 107°
2026-04-22 19:22 49.26978 13.15016 35311 ft 465 kts 107°
2026-04-22 19:23 49.24677 13.24282 35306 ft 464 kts 107°
2026-04-22 19:23 49.22311 13.33467 35305 ft 463 kts 109°
2026-04-22 19:24 49.19836 13.42582 35308 ft 463 kts 109°
2026-04-22 19:24 49.17380 13.51600 35309 ft 462 kts 109°
2026-04-22 19:25 49.14919 13.60664 35301 ft 462 kts 109°
2026-04-22 19:25 49.12451 13.69749 35304 ft 461 kts 109°
2026-04-22 19:25 49.11222 13.74258 35174 ft 458 kts 109°
2026-04-22 19:26 49.09995 13.78755 34918 ft 458 kts 109°
2026-04-22 19:26 49.08770 13.83233 34656 ft 457 kts 109°
2026-04-22 19:26 49.07564 13.87634 34422 ft 456 kts 109°
2026-04-22 19:26 49.06335 13.92107 34127 ft 455 kts 109°
2026-04-22 19:27 49.05108 13.96569 33859 ft 457 kts 109°
2026-04-22 19:27 49.02631 14.05556 33830 ft 462 kts 109°
2026-04-22 19:27 49.01385 14.10055 33564 ft 454 kts 109°
2026-04-22 19:28 49.00180 14.14387 32969 ft 434 kts 109°
2026-04-22 19:28 48.99023 14.18540 32430 ft 416 kts 109°
2026-04-22 19:28 48.97919 14.22512 31900 ft 400 kts 109°
2026-04-22 19:28 48.96856 14.26335 31371 ft 385 kts 109°
2026-04-22 19:29 48.95831 14.30009 30873 ft 376 kts 109°
2026-04-22 19:29 48.94776 14.33628 30383 ft 374 kts 114°
2026-04-22 19:29 48.93293 14.36956 29823 ft 385 kts 122°
2026-04-22 19:29 48.91637 14.40174 29283 ft 388 kts 123°
2026-04-22 19:30 48.90523 14.42318 28918 ft 387 kts 123°
2026-04-22 19:30 48.88304 14.46609 28169 ft 384 kts 123°
2026-04-22 19:30 48.86669 14.49799 27626 ft 381 kts 122°
2026-04-22 19:30 48.85073 14.52931 27108 ft 378 kts 122°
2026-04-22 19:31 48.83472 14.56084 26591 ft 376 kts 122°
2026-04-22 19:31 48.81880 14.59221 26066 ft 374 kts 122°
2026-04-22 19:31 48.80296 14.62341 25569 ft 372 kts 122°
2026-04-22 19:31 48.78717 14.65450 25063 ft 371 kts 122°
2026-04-22 19:32 48.77138 14.68556 24592 ft 370 kts 122°
2026-04-22 19:32 48.75571 14.71633 24119 ft 369 kts 122°
2026-04-22 19:32 48.73999 14.74716 23604 ft 369 kts 123°
2026-04-22 19:32 48.72425 14.77796 23044 ft 369 kts 122°
2026-04-22 19:33 48.70873 14.80827 22501 ft 368 kts 123°
2026-04-22 19:33 48.69297 14.83901 21965 ft 368 kts 123°
2026-04-22 19:33 48.67725 14.86961 21445 ft 368 kts 123°
2026-04-22 19:33 48.66272 14.90124 20913 ft 363 kts 115°
2026-04-22 19:34 48.65151 14.93471 20413 ft 359 kts 108°
2026-04-22 19:34 48.64254 14.96978 19926 ft 357 kts 106°
2026-04-22 19:34 48.63363 15.00475 19432 ft 357 kts 106°
2026-04-22 19:34 48.62459 15.03989 18946 ft 356 kts 107°
2026-04-22 19:35 48.61555 15.07487 18449 ft 356 kts 107°
2026-04-22 19:35 48.60666 15.10912 17914 ft 355 kts 107°
2026-04-22 19:35 48.59761 15.14389 17434 ft 352 kts 107°
2026-04-22 19:35 48.58884 15.17807 17284 ft 345 kts 105°
2026-04-22 19:36 48.58117 15.21198 17263 ft 343 kts 103°
2026-04-22 19:36 48.57383 15.24650 16919 ft 348 kts 103°
2026-04-22 19:36 48.56650 15.28154 16394 ft 350 kts 103°
2026-04-22 19:36 48.55910 15.31670 15881 ft 350 kts 103°
2026-04-22 19:37 48.55168 15.35167 15380 ft 349 kts 103°
2026-04-22 19:37 48.54423 15.38646 14883 ft 349 kts 103°
2026-04-22 19:37 48.53674 15.42130 14397 ft 348 kts 103°
2026-04-22 19:37 48.52923 15.45604 13889 ft 347 kts 103°
2026-04-22 19:38 48.52174 15.49060 13359 ft 347 kts 104°
2026-04-22 19:38 48.51422 15.52519 12814 ft 346 kts 104°
2026-04-22 19:38 48.50680 15.55923 12298 ft 345 kts 104°
2026-04-22 19:38 48.49929 15.59363 11781 ft 345 kts 104°
2026-04-22 19:39 48.49178 15.62802 11276 ft 344 kts 104°
2026-04-22 19:39 48.48427 15.66236 10771 ft 344 kts 105°
2026-04-22 19:39 48.47677 15.69653 10278 ft 343 kts 105°
2026-04-22 19:39 48.46928 15.73064 9763 ft 342 kts 105°
2026-04-22 19:40 48.46179 15.76465 9234 ft 342 kts 105°
2026-04-22 19:40 48.45433 15.79846 8971 ft 335 kts 105°
2026-04-22 19:40 48.44708 15.83116 8877 ft 319 kts 105°
2026-04-22 19:40 48.44033 15.86150 8674 ft 299 kts 105°
2026-04-22 19:41 48.43388 15.89056 8314 ft 291 kts 105°
2026-04-22 19:41 48.42750 15.91970 8288 ft 295 kts 105°
2026-04-22 19:41 48.42106 15.94917 8298 ft 297 kts 105°
2026-04-22 19:41 48.41439 15.97953 8331 ft 315 kts 105°
2026-04-22 19:42 48.40729 16.01157 8332 ft 324 kts 105°
2026-04-22 19:42 48.40012 16.04351 8305 ft 322 kts 105°
2026-04-22 19:42 48.39309 16.07466 8029 ft 306 kts 105°
2026-04-22 19:42 48.38643 16.10413 7608 ft 290 kts 105°
2026-04-22 19:43 48.37388 16.15992 6879 ft 284 kts 105°
2026-04-22 19:43 48.36754 16.18818 6513 ft 285 kts 105°
2026-04-22 19:43 48.36120 16.21642 6129 ft 285 kts 105°
2026-04-22 19:44 48.35491 16.24431 6005 ft 276 kts 104°
2026-04-22 19:44 48.34874 16.27169 6029 ft 279 kts 104°
2026-04-22 19:44 48.34250 16.29937 6000 ft 278 kts 105°
2026-04-22 19:44 48.33630 16.32677 5997 ft 274 kts 105°
2026-04-22 19:45 48.33025 16.35351 6002 ft 272 kts 105°
2026-04-22 19:45 48.32412 16.38065 6028 ft 275 kts 105°
2026-04-22 19:45 48.31791 16.40805 6004 ft 277 kts 105°
2026-04-22 19:45 48.31178 16.43496 5984 ft 262 kts 104°
2026-04-22 19:46 48.30602 16.46012 5987 ft 249 kts 104°
2026-04-22 19:46 48.30056 16.48404 5988 ft 242 kts 104°
2026-04-22 19:46 48.29275 16.50642 6006 ft 245 kts 122°
2026-04-22 19:46 48.28212 16.52690 6002 ft 252 kts 126°
2026-04-22 19:47 48.27091 16.54734 6020 ft 254 kts 126°
2026-04-22 19:47 48.25978 16.56775 5995 ft 251 kts 125°
2026-04-22 19:47 48.25237 16.58147 5988 ft 249 kts 125°
2026-04-22 19:47 48.23809 16.60823 5999 ft 248 kts 124°
2026-04-22 19:48 48.22734 16.62858 6008 ft 249 kts 124°
2026-04-22 19:48 48.21661 16.64900 5961 ft 251 kts 124°
2026-04-22 19:48 48.20571 16.66984 5678 ft 256 kts 124°
2026-04-22 19:48 48.19473 16.69084 5378 ft 256 kts 124°
2026-04-22 19:49 48.18386 16.71165 5076 ft 256 kts 124°
2026-04-22 19:49 48.17278 16.73251 4759 ft 256 kts 126°
2026-04-22 19:49 48.16129 16.75292 4451 ft 256 kts 126°
2026-04-22 19:49 48.14980 16.77338 4155 ft 257 kts 126°
2026-04-22 19:50 48.13828 16.79394 3846 ft 256 kts 126°
2026-04-22 19:50 48.12676 16.81444 3545 ft 256 kts 126°
2026-04-22 19:50 48.11538 16.83459 3216 ft 251 kts 126°
2026-04-22 19:50 48.10323 16.85239 3013 ft 245 kts 147°
2026-04-22 19:51 48.08748 16.85929 2983 ft 232 kts 182°
2026-04-22 19:51 48.07194 16.85388 3057 ft 232 kts 202°
2026-04-22 19:51 48.05696 16.84486 3021 ft 231 kts 205°
2026-04-22 19:51 48.04275 16.83458 2982 ft 222 kts 221°
2026-04-22 19:52 48.03423 16.81722 2977 ft 198 kts 261°
2026-04-22 19:52 48.03491 16.79820 2989 ft 177 kts 301°
2026-04-22 19:52 48.04104 16.78301 3005 ft 174 kts 306°
2026-04-22 19:52 48.04685 16.76666 3013 ft 180 kts 302°
2026-04-22 19:53 48.05244 16.74974 3004 ft 183 kts 302°
2026-04-22 19:53 48.05799 16.73272 2957 ft 180 kts 302°
2026-04-22 19:53 48.06161 16.72160 2771 ft 178 kts 302°
2026-04-22 19:53 48.06865 16.69989 2456 ft 165 kts 303°
2026-04-22 19:54 48.07343 16.68527 2261 ft 155 kts 303°
2026-04-22 19:54 48.07810 16.67092 2040 ft 151 kts 303°
2026-04-22 19:54 48.08246 16.65741 1822 ft 138 kts 303°
2026-04-22 19:54 48.08662 16.64473 1665 ft 133 kts 302°
2026-04-22 19:55 48.09051 16.63221 1537 ft 132 kts 298°
2026-04-22 19:55 48.09432 16.62020 1315 ft 126 kts 302°
2026-04-22 19:55 48.09838 16.60809 1150 ft 136 kts 297°
2026-04-22 19:55 48.10277 16.59492 1024 ft 147 kts 298°
2026-04-22 19:56 48.10710 16.58136 760 ft 143 kts 298°
2026-04-22 19:56 48.11130 16.56862 620 ft 125 kts 298°
2026-04-22 19:56 48.11447 16.55899 626 ft 78 kts 296°
2026-04-22 19:56 48.11611 16.55418 624 ft 25 kts 305°
2026-04-22 19:57 48.11740 16.55227 621 ft 16 kts 318°
2026-04-22 19:57 48.11836 16.55146 621 ft 16 kts 349°
2026-04-22 19:57 48.11846 16.55146 626 ft 0 kts
2026-04-22 19:57 48.11847 16.55146 627 ft 1 kts
2026-04-22 19:58 48.11864 16.55148 623 ft 5 kts
2026-04-22 19:58 48.11896 16.55167 624 ft 5 kts 28°
2026-04-22 19:58 48.11926 16.55201 624 ft 6 kts 47°
2026-04-22 19:58 48.11936 16.55243 626 ft 6 kts 84°
2026-04-22 19:59 48.11922 16.55327 621 ft 11 kts 111°
2026-04-22 20:00 48.11658 16.55898 629 ft 12 kts 116°
2026-04-22 20:00 48.11619 16.56017 626 ft 13 kts 117°
2026-04-22 20:01 48.11577 16.56140 621 ft 14 kts 115°
2026-04-22 20:01 48.11537 16.56267 625 ft 14 kts 115°
2026-04-22 20:01 48.11495 16.56395 623 ft 14 kts 116°
2026-04-22 20:01 48.11453 16.56523 623 ft 14 kts 116°
2026-04-22 20:02 48.11410 16.56651 625 ft 14 kts 115°
2026-04-22 20:02 48.11385 16.56782 627 ft 14 kts 72°
2026-04-22 20:02 48.11449 16.56859 625 ft 5 kts 26°
2026-04-22 20:02 48.11482 16.56883 629 ft 6 kts 27°
2026-04-22 20:03 48.11520 16.56909 623 ft 7 kts 17°
2026-04-22 20:03 48.11566 16.56901 626 ft 7 kts 330°
2026-04-22 20:03 48.11612 16.56881 626 ft 7 kts 17°
2026-04-22 20:03 48.11644 16.56902 622 ft 3 kts 27°
2026-04-22 20:04 48.11662 16.56916 624 ft 3 kts 27°
2026-04-22 20:04 48.11667 16.56920 629 ft 0 kts 27°